When you browse on this site, cookies collect data to enhance your experience and personalize the content and advertising you see.
Visit our Privacy Policy to learn more. By continuing to use the site, you agree to this use of cookies and data.

Hourly Weather San Luis

Today, 6 August, Thursday

Time Temperature Precipitation Wind Pressure Humidity
00:00 +13°C° 0 mm 12 mps 702 mmHg 47%
01:00 +13°C° 0 mm 12 mps 703 mmHg 41%
02:00 +12°C° 0 mm 12 mps 703 mmHg 35%
03:00 +11°C° 0 mm 11 mps 703 mmHg 34%
04:00 +9°C° 0 mm 11 mps 704 mmHg 33%
05:00 +8°C° 0 mm 10 mps 704 mmHg 31%
06:00 +8°C° 0 mm 10 mps 705 mmHg 31%
07:00 +8°C° 0 mm 10 mps 705 mmHg 31%
08:00 +8°C° 0 mm 10 mps 706 mmHg 31%
09:00 +8°C° 0 mm 9 mps 706 mmHg 30%
10:00 +8°C° 0 mm 9 mps 706 mmHg 28%
11:00 +10°C° 0 mm 8 mps 706 mmHg 27%
12:00 +11°C° 0 mm 8 mps 706 mmHg 26%
13:00 +12°C° 0 mm 7 mps 705 mmHg 26%
14:00 +13°C° 0 mm 6 mps 705 mmHg 25%
15:00 +13°C° 0 mm 6 mps 704 mmHg 26%
16:00 +13°C° 0 mm 5 mps 704 mmHg 26%
17:00 +14°C° 0 mm 5 mps 703 mmHg 27%
18:00 +12°C° 0 mm 5 mps 703 mmHg 30%
19:00 +11°C° 0 mm 4 mps 703 mmHg 33%
20:00 +10°C° 0 mm 4 mps 703 mmHg 35%
21:00 +9°C° 0 mm 3 mps 703 mmHg 38%
22:00 +9°C° 0 mm 3 mps 703 mmHg 40%
23:00 +8°C° 0 mm 2 mps 702 mmHg 42%

Tomorrow, 7 August, Friday

Time Temperature Precipitation Wind Pressure Humidity
00:00 +8°C° 0 mm 2 mps 702 mmHg 44%
01:00 +8°C° 0 mm 2 mps 702 mmHg 46%
02:00 +7°C° 0 mm 2 mps 701 mmHg 47%
03:00 +7°C° 0 mm 2 mps 701 mmHg 47%
04:00 +8°C° 0 mm 2 mps 701 mmHg 46%
05:00 +8°C° 0 mm 2 mps 701 mmHg 45%
06:00 +8°C° 0 mm 2 mps 701 mmHg 45%
07:00 +9°C° 0 mm 1 mps 702 mmHg 45%
08:00 +9°C° 0 mm 1 mps 702 mmHg 45%
09:00 +11°C° 0 mm 1 mps 703 mmHg 40%
10:00 +13°C° 0 mm 1 mps 703 mmHg 36%
11:00 +15°C° 0 mm 1 mps 704 mmHg 32%
12:00 +16°C° 0 mm 2 mps 703 mmHg 31%
13:00 +17°C° 0 mm 2 mps 703 mmHg 30%
14:00 +17°C° 0 mm 2 mps 703 mmHg 29%
15:00 +17°C° 0 mm 2 mps 703 mmHg 29%
16:00 +17°C° 0 mm 3 mps 702 mmHg 30%
17:00 +17°C° 0 mm 3 mps 702 mmHg 30%
18:00 +14°C° 0 mm 4 mps 702 mmHg 37%
19:00 +13°C° 0 mm 4 mps 703 mmHg 44%
20:00 +10°C° 0 mm 5 mps 703 mmHg 50%
21:00 +10°C° 0 mm 5 mps 703 mmHg 57%
22:00 +9°C° 0 mm 5 mps 703 mmHg 64%
23:00 +9°C° 0 mm 5 mps 703 mmHg 70%

Day after tomorrow, 8 August, Saturday

Time Temperature Precipitation Wind Pressure Humidity
00:00 +10°C° 0 mm 4 mps 702 mmHg 69%
01:00 +9°C° 0 mm 3 mps 702 mmHg 68%
02:00 +9°C° 0 mm 3 mps 702 mmHg 67%
03:00 +9°C° 0 mm 3 mps 701 mmHg 65%
04:00 +9°C° 0 mm 3 mps 701 mmHg 63%
05:00 +9°C° 0 mm 3 mps 700 mmHg 61%
06:00 +9°C° 0 mm 3 mps 701 mmHg 58%
07:00 +9°C° 0 mm 3 mps 701 mmHg 56%
08:00 +9°C° 0 mm 3 mps 701 mmHg 53%
09:00 +12°C° 0 mm 3 mps 701 mmHg 46%
10:00 +14°C° 0 mm 3 mps 701 mmHg 39%
11:00 +17°C° 0 mm 4 mps 701 mmHg 32%
12:00 +18°C° 0 mm 4 mps 701 mmHg 30%
13:00 +19°C° 0 mm 4 mps 700 mmHg 28%
14:00 +20°C° 0 mm 4 mps 700 mmHg 27%
15:00 +20°C° 0 mm 3 mps 699 mmHg 27%
16:00 +20°C° 0 mm 3 mps 699 mmHg 28%
17:00 +20°C° 0 mm 3 mps 698 mmHg 28%
18:00 +18°C° 0 mm 3 mps 698 mmHg 33%
19:00 +16°C° 0 mm 2 mps 698 mmHg 37%
20:00 +15°C° 0 mm 2 mps 698 mmHg 41%
21:00 +14°C° 0 mm 2 mps 698 mmHg 43%
22:00 +14°C° 0 mm 2 mps 698 mmHg 45%
23:00 +14°C° 0 mm 1 mps 698 mmHg 46%

9 August, Sunday

Time Temperature Precipitation Wind Pressure Humidity
00:00 +14°C° 0 mm 2 mps 697 mmHg 47%
01:00 +12°C° 0 mm 3 mps 697 mmHg 48%
02:00 +12°C° 0 mm 3 mps 696 mmHg 49%
03:00 +12°C° 0 mm 3 mps 696 mmHg 52%
04:00 +12°C° 0 mm 3 mps 695 mmHg 54%
05:00 +11°C° 0 mm 3 mps 695 mmHg 56%
06:00 +12°C° 0 mm 4 mps 695 mmHg 55%
07:00 +13°C° 0 mm 5 mps 695 mmHg 54%
08:00 +13°C° 0 mm 5 mps 695 mmHg 53%
09:00 +16°C° 0 mm 6 mps 695 mmHg 47%
10:00 +19°C° 0 mm 6 mps 695 mmHg 41%
11:00 +22°C° 0 mm 6 mps 695 mmHg 36%
12:00 +23°C° 0 mm 6 mps 695 mmHg 34%
13:00 +23°C° 0 mm 5 mps 694 mmHg 32%
14:00 +25°C° 0 mm 5 mps 693 mmHg 30%
15:00 +25°C° 0 mm 4 mps 694 mmHg 30%
16:00 +24°C° 0 mm 3 mps 694 mmHg 30%
17:00 +24°C° 0 mm 2 mps 694 mmHg 31%
18:00 +21°C° 0 mm 3 mps 695 mmHg 33%
19:00 +19°C° 0 mm 5 mps 695 mmHg 36%
20:00 +16°C° 0 mm 6 mps 696 mmHg 38%
21:00 +15°C° 0 mm 6 mps 697 mmHg 38%
22:00 +14°C° 0 mm 6 mps 697 mmHg 38%
23:00 +13°C° 0 mm 6 mps 698 mmHg 38%

10 August, Monday

Time Temperature Precipitation Wind Pressure Humidity
00:00 +11°C° 0 mm 6 mps 699 mmHg 40%
01:00 +11°C° 0 mm 6 mps 699 mmHg 43%
02:00 +10°C° 0 mm 6 mps 700 mmHg 46%
03:00 +9°C° 0 mm 5 mps 700 mmHg 46%
04:00 +9°C° 0 mm 5 mps 700 mmHg 45%
05:00 +8°C° 0 mm 4 mps 700 mmHg 45%
06:00 +8°C° 0 mm 4 mps 701 mmHg 43%
07:00 +8°C° 0 mm 4 mps 702 mmHg 41%
08:00 +9°C° 0 mm 3 mps 703 mmHg 39%
09:00 +10°C° 0 mm 4 mps 703 mmHg 32%
10:00 +10°C° 0 mm 6 mps 704 mmHg 26%
11:00 +12°C° 0 mm 7 mps 705 mmHg 20%
12:00 +13°C° 0 mm 6 mps 704 mmHg 18%
13:00 +13°C° 0 mm 5 mps 704 mmHg 16%
14:00 +14°C° 0 mm 4 mps 704 mmHg 15%
15:00 +14°C° 0 mm 4 mps 703 mmHg 15%
16:00 +13°C° 0 mm 4 mps 703 mmHg 16%
17:00 +13°C° 0 mm 5 mps 703 mmHg 17%
18:00 +10°C° 0 mm 5 mps 703 mmHg 21%
19:00 +9°C° 0 mm 5 mps 703 mmHg 24%
20:00 +7°C° 0 mm 6 mps 704 mmHg 28%
21:00 +7°C° 0 mm 5 mps 704 mmHg 29%
22:00 +6°C° 0 mm 5 mps 704 mmHg 30%
23:00 +6°C° 0 mm 5 mps 704 mmHg 30%

11 August, Tuesday

Time Temperature Precipitation Wind Pressure Humidity
00:00 +6°C° 0 mm 4 mps 703 mmHg 29%
01:00 +6°C° 0 mm 4 mps 703 mmHg 28%
02:00 +7°C° 0 mm 3 mps 703 mmHg 26%
03:00 +5°C° 0 mm 3 mps 702 mmHg 25%
04:00 +5°C° 0 mm 3 mps 702 mmHg 24%
05:00 +6°C° 0 mm 2 mps 701 mmHg 23%
06:00 +5°C° 0 mm 3 mps 701 mmHg 24%
07:00 +7°C° 0 mm 3 mps 701 mmHg 24%
08:00 +6°C° 0 mm 4 mps 701 mmHg 25%
09:00 +9°C° 0 mm 5 mps 701 mmHg 23%
10:00 +11°C° 0 mm 6 mps 701 mmHg 20%
11:00 +14°C° 0 mm 7 mps 701 mmHg 18%
12:00 +15°C° 0 mm 8 mps 700 mmHg 18%
13:00 +16°C° 0 mm 8 mps 699 mmHg 17%
14:00 +17°C° 0 mm 8 mps 698 mmHg 17%
15:00 +16°C° 0 mm 8 mps 698 mmHg 17%
16:00 +16°C° 0 mm 7 mps 697 mmHg 17%
17:00 +15°C° 0 mm 7 mps 696 mmHg 17%
18:00 +14°C° 0 mm 6 mps 696 mmHg 19%
19:00 +12°C° 0 mm 5 mps 696 mmHg 20%
20:00 +10°C° 0 mm 4 mps 696 mmHg 22%
21:00 +9°C° 0 mm 5 mps 696 mmHg 21%
22:00 +9°C° 0 mm 5 mps 696 mmHg 21%
23:00 +9°C° 0 mm 5 mps 696 mmHg 21%
Show more